Flag Weather past 2 weeks in Lexington, North Carolina, U.S.A.

Now
35 °F

Passing clouds.


Feels Like: 35 °F
Forecast: 26 / 41 °F
Wind: No wind

Location: Davidson County Airport

Current Time: Nov 27, 2014 at 10:30:20 PM

Latest Report: Nov 27, 2014 at 9:55 PM


Visibility: 10 mi

Pressure: 30.25 "Hg

Humidity: 67%

Dew point: 25 °F

Location of LexingtonLocation

Historic Weather in Lexington — Graph

°F

Lexington temperature yesterday

Maximum temperature yesterday: 48 °F (at 2:35 PM)
Minimum temperature yesterday: 40 °F (at 8:55 PM)
Average temperature yesterday: 44 °F

Past Weeks' High & Low Weather Summary

 TemperatureHumidityPressure
High73 °F (Nov 24, 2:15 PM)99% (Nov 17, 8:35 AM)30.57 "Hg (Nov 17, 8:35 AM)
Low15 °F (Nov 19, 6:55 AM)18% (Nov 21, 2:15 PM)29.61 "Hg (Nov 17, 1:15 PM)
Average42 °F63%30.13 "Hg
* Reported Nov 12 9:15 PM — Nov 27 9:15 PM, Lexington, Weather by CustomWeather, © 2014

Note: Actual official high and low records may vary slightly from our data, if they occured in-between our weather recording intervals... More about our weather records

Advertising

Lexington weather history for previous 24 hours

 ConditionsComfort  
Time TempWeatherWind HumidityBarometerVisibility
9:15 PM
Nov 27
35 °FPassing clouds.No wind72%30.24 "Hg10 mi
8:55 PM34 °FPassing clouds.No wind75%30.24 "Hg10 mi
8:35 PM35 °FPassing clouds.No wind73%30.24 "Hg10 mi
8:15 PM35 °FPassing clouds.No wind73%30.24 "Hg10 mi
7:35 PM38 °FPassing clouds.No wind64%30.23 "Hg10 mi
7:15 PM38 °FPassing clouds.No wind61%30.22 "Hg10 mi
6:55 PM39 °FPassing clouds.No wind61%30.21 "Hg10 mi
6:15 PM40 °FPassing clouds.5 mph59%30.20 "Hg10 mi
5:55 PM40 °FPassing clouds.5 mph57%30.19 "Hg10 mi
5:35 PM40 °FClear.3 mph57%30.19 "Hg10 mi
5:15 PM41 °FClear.No wind55%30.18 "Hg10 mi
4:55 PM43 °FScattered clouds.6 mph52%30.17 "Hg10 mi
4:35 PM44 °FScattered clouds.7 mph50%30.16 "Hg10 mi
4:15 PM44 °FScattered clouds.7 mph52%30.14 "Hg10 mi
3:55 PM46 °FPartly sunny.3 mph50%30.13 "Hg10 mi
3:35 PM46 °FMore clouds than sun.6 mph51%30.12 "Hg10 mi
3:15 PM46 °FMore clouds than sun.7 mph52%30.11 "Hg10 mi
2:55 PM46 °FScattered clouds.5 mph54%30.10 "Hg10 mi
2:35 PM46 °FScattered clouds.6 mph56%30.09 "Hg10 mi
2:15 PM46 °FScattered clouds.3 mph56%30.09 "Hg10 mi
1:55 PM48 °FScattered clouds.5 mph57%30.08 "Hg10 mi
1:35 PM46 °FBroken clouds.3 mph67%30.09 "Hg10 mi
1:15 PM46 °FMore clouds than sun.No wind68%30.09 "Hg10 mi
12:55 PM46 °FCloudy.5 mph70%30.09 "Hg10 mi
12:35 PM46 °FCloudy.5 mph70%30.09 "Hg10 mi
12:15 PM46 °FBroken clouds.5 mph70%30.09 "Hg10 mi
11:55 AM45 °FCloudy.5 mph77%30.09 "Hg10 mi
11:15 AM44 °FBroken clouds.3 mph83%30.08 "Hg10 mi
10:55 AM42 °FBroken clouds.5 mph91%30.08 "Hg10 mi
10:35 AM40 °FCloudy.5 mph91%30.08 "Hg10 mi
10:15 AM40 °FDrizzle. Cloudy.5 mph90%30.07 "Hg10 mi
9:55 AM40 °FDrizzle. Cloudy.3 mph92%30.06 "Hg10 mi
9:35 AM40 °FDrizzle. Broken clouds.3 mph93%30.05 "Hg10 mi
9:15 AM41 °FRain. Mostly cloudy.No wind97%30.03 "Hg3 mi
8:55 AM41 °FRain. More clouds than sun.No wind95%30.02 "Hg4 mi
8:35 AM40 °FMore clouds than sun.No wind95%30.01 "Hg7 mi
8:15 AM40 °FMostly cloudy.No wind95%30.01 "Hg7 mi
7:55 AM40 °FFog.No wind97%30.01 "Hg4 mi
7:35 AM40 °FFog.No wind98%30.00 "Hg4 mi
7:15 AM40 °FFog.No wind98%29.99 "Hg4 mi
6:55 AM39 °FFog.No wind97%29.98 "Hg4 mi
6:15 AM40 °FFog.No wind97%29.96 "Hg4 mi
5:55 AM40 °FRain. Mostly cloudy.No wind98%29.96 "Hg3 mi
5:35 AM40 °FFog.No wind97%29.96 "Hg4 mi
5:15 AM40 °FFog.No wind97%29.95 "Hg5 mi
4:55 AM40 °FFog.No wind97%29.96 "Hg5 mi
4:35 AM40 °FFog.No wind97%29.96 "Hg5 mi
4:15 AM40 °FFog.No wind97%29.98 "Hg5 mi
3:15 AM41 °FDrizzle. Mostly cloudy.No wind96%30.00 "Hg7 mi
2:55 AM42 °FOvercast.No wind96%30.01 "Hg10 mi
2:15 AM42 °FMostly cloudy.5 mph96%30.01 "Hg10 mi
1:55 AM42 °FMostly cloudy.No wind96%30.01 "Hg7 mi
1:35 AM42 °FFog.No wind97%30.01 "Hg5 mi
1:15 AM42 °FMostly cloudy.No wind95%30.01 "Hg10 mi
12:55 AM42 °FMostly cloudy.No wind97%30.01 "Hg10 mi
12:15 AM42 °FOvercast.No wind96%30.01 "Hg10 mi
11:55 PM
Nov 26
42 °FOvercast.No wind95%30.02 "Hg10 mi
11:35 PM42 °FMostly cloudy.No wind95%30.02 "Hg10 mi
11:15 PM42 °FOvercast.No wind97%30.03 "Hg7 mi
10:55 PM42 °FOvercast.3 mph97%30.05 "Hg10 mi
10:15 PM41 °FLight rain. Passing clouds.No wind97%30.02 "Hg5 mi
Weather by CustomWeather, © 2014

See weather overviewHow to use our weather pages